Southern Pines, NC

10:02 PM EDT on August 29, 2016 (GMT -0400)
Moore County

Weather History for KSOP - July, 2013

Change the Weather History Date:

Saturday, July 20, 2013

  Actual Average Record
Temperature  
Mean Temperature 82 °F -  
Max Temperature 89 °F 86 °F 96 °F (2011)
Min Temperature 75 °F 67 °F 62 °F (2004)
Cooling Degree Days 17    
Growing Degree Days 32 (Base 50)    
Moisture  
Dew Point 70 °F    
Average Humidity 70    
Maximum Humidity 83    
Minimum Humidity 52    
Precipitation  
Precipitation 0.00 in - - ()
Sea Level Pressure  
Sea Level Pressure 30.02 in    
Wind  
Wind Speed 10 mph (SW)    
Max Wind Speed 15 mph    
Max Gust Speed 21 mph    
Visibility 10 miles    
Events      
Averages and records for this station are not official NWS values.
T = Trace of Precipitation, MM = Missing Value Source: NWS Daily Summary

Daily Weather History Graph

Daily Weather History Graph

Search for Another Location

Airport or City:

Trip Planner

Search our weather history database for the weather conditions in past years. The results will help you decide how hot, cold, wet, or windy it might be!

Date:

Astronomy

Jul. 20, 2013 Rise Set
Actual Time 6:17 AM EDT 8:29 PM EDT
Civil Twilight 5:49 AM EDT 8:58 PM EDT
Nautical Twilight 5:13 AM EDT 9:33 PM EDT
Astronomical Twilight 4:35 AM EDT 10:11 PM EDT
Moon 6:31 PM EDT (7/20) 3:55 AM EDT (7/20)
Length of Visible Light 15h 09m
Length of Day
14h 11m
Waxing Gibbous, 93% of the Moon is Illuminated
Jul 20
Waxing Gibbous
Jul 22
Full
Jul 29
Last Quarter
Aug 6
New
Aug 14
First Quarter

Hourly Weather History & Observations

Time (EDT) Temp. Heat Index Dew Point Humidity Pressure Visibility Wind Dir Wind Speed Gust Speed Precip Events Conditions
12:15 AM 78.8 °F - 69.8 °F 74% 30.06 in 10.0 mi SSW 10.4 mph - N/A   Clear
12:35 AM 77.0 °F - 69.8 °F 78% 30.06 in 10.0 mi SSW 11.5 mph 19.6 mph N/A   Clear
12:55 AM 77.0 °F - 69.8 °F 78% 30.06 in 10.0 mi SSW 12.7 mph 16.1 mph N/A   Clear
1:15 AM 77.0 °F - 69.8 °F 78% 30.06 in 10.0 mi SSW 12.7 mph 18.4 mph N/A   Clear
1:35 AM 75.2 °F - 69.8 °F 83% 30.05 in 10.0 mi SW 10.4 mph - N/A   Clear
1:55 AM 75.2 °F - 69.8 °F 83% 30.05 in 10.0 mi SW 12.7 mph 18.4 mph N/A   Clear
2:15 AM 75.2 °F - 69.8 °F 83% 30.04 in 10.0 mi SW 12.7 mph - N/A   Clear
2:35 AM 75.2 °F - 69.8 °F 83% 30.04 in 10.0 mi SW 12.7 mph - N/A   Clear
2:55 AM 75.2 °F - 69.8 °F 83% 30.04 in 10.0 mi SW 11.5 mph - N/A   Clear
3:15 AM 75.2 °F - 69.8 °F 83% 30.04 in 10.0 mi SW 9.2 mph - N/A   Partly Cloudy
3:35 AM 75.2 °F - 69.8 °F 83% 30.04 in 10.0 mi SW 10.4 mph 16.1 mph N/A   Mostly Cloudy
3:55 AM 75.2 °F - 69.8 °F 83% 30.04 in 10.0 mi SW 12.7 mph 17.3 mph N/A   Overcast
4:15 AM 75.2 °F - 69.8 °F 83% 30.04 in 10.0 mi SW 11.5 mph - N/A   Overcast
4:35 AM 75.2 °F - 69.8 °F 83% 30.05 in 10.0 mi SW 11.5 mph 16.1 mph N/A   Overcast
4:55 AM 75.2 °F - 69.8 °F 83% 30.05 in 10.0 mi SW 11.5 mph - N/A   Overcast
5:15 AM 75.2 °F - 69.8 °F 83% 30.04 in 10.0 mi SW 10.4 mph - N/A   Overcast
5:35 AM 75.2 °F - 69.8 °F 83% 30.04 in 10.0 mi WSW 8.1 mph - N/A   Overcast
5:55 AM 75.2 °F - 69.8 °F 83% 30.04 in 10.0 mi WSW 9.2 mph 17.3 mph N/A   Overcast
6:15 AM 75.2 °F - 69.8 °F 83% 30.04 in 10.0 mi WSW 8.1 mph - N/A   Overcast
6:35 AM 75.2 °F - 69.8 °F 83% 30.04 in 10.0 mi WSW 9.2 mph - N/A   Overcast
6:55 AM 75.2 °F - 69.8 °F 83% 30.04 in 10.0 mi SW 9.2 mph - N/A   Overcast
7:15 AM 75.2 °F - 69.8 °F 83% 30.05 in 10.0 mi SW 6.9 mph - N/A   Overcast
7:35 AM 75.2 °F - 69.8 °F 83% 30.06 in 10.0 mi SW 10.4 mph - N/A   Overcast
7:55 AM 75.2 °F - 69.8 °F 83% 30.06 in 10.0 mi SW 10.4 mph - N/A   Overcast
8:15 AM 75.2 °F - 69.8 °F 83% 30.06 in 10.0 mi SW 8.1 mph - N/A   Overcast
8:35 AM 77.0 °F - 69.8 °F 78% 30.06 in 10.0 mi SW 9.2 mph - N/A   Overcast
8:55 AM 77.0 °F - 69.8 °F 78% 30.06 in 10.0 mi WSW 10.4 mph - N/A   Overcast
9:15 AM 78.8 °F - 69.8 °F 74% 30.06 in 10.0 mi SW 5.8 mph - N/A   Overcast
9:35 AM 78.8 °F - 69.8 °F 74% 30.06 in 10.0 mi WSW 6.9 mph - N/A   Overcast
9:55 AM 78.8 °F - 69.8 °F 74% 30.06 in 10.0 mi WSW 10.4 mph - N/A   Overcast
10:15 AM 82.4 °F 86.3 °F 69.8 °F 66% 30.06 in 10.0 mi WSW 8.1 mph - N/A   Overcast
10:35 AM 80.6 °F 83.9 °F 69.8 °F 70% 30.06 in 10.0 mi WSW 8.1 mph - N/A   Overcast
10:55 AM 82.4 °F 86.3 °F 69.8 °F 66% 30.07 in 10.0 mi West 10.4 mph - N/A   Overcast
11:15 AM 82.4 °F 86.3 °F 69.8 °F 66% 30.06 in 10.0 mi WSW 9.2 mph - N/A   Overcast
11:35 AM 82.4 °F 86.3 °F 69.8 °F 66% 30.06 in 10.0 mi WSW 5.8 mph - N/A   Overcast
11:55 AM 82.4 °F 86.3 °F 69.8 °F 66% 30.05 in 10.0 mi WSW 11.5 mph - N/A   Mostly Cloudy
12:15 PM 84.2 °F 89.6 °F 71.6 °F 66% 30.05 in 10.0 mi WSW 5.8 mph - N/A   Overcast
12:35 PM 84.2 °F 89.6 °F 71.6 °F 66% 30.05 in 10.0 mi WSW 10.4 mph - N/A   Mostly Cloudy
12:55 PM 84.2 °F 89.6 °F 71.6 °F 66% 30.04 in 10.0 mi SW 6.9 mph - N/A   Mostly Cloudy
1:15 PM 87.8 °F 93.8 °F 71.6 °F 58% 30.03 in 10.0 mi SW 11.5 mph 16.1 mph N/A   Mostly Cloudy
1:35 PM 87.8 °F 92.6 °F 69.8 °F 55% 30.02 in 10.0 mi WSW 12.7 mph 17.3 mph N/A   Overcast
1:55 PM 87.8 °F 93.8 °F 71.6 °F 58% 30.01 in 10.0 mi WSW 9.2 mph - N/A   Scattered Clouds
2:15 PM 89.6 °F 94.7 °F 69.8 °F 52% 30.00 in 10.0 mi West 5.8 mph - N/A   Scattered Clouds
2:35 PM 87.8 °F 92.6 °F 69.8 °F 55% 30.00 in 10.0 mi SW 9.2 mph - N/A   Mostly Cloudy
2:55 PM 89.6 °F 94.7 °F 69.8 °F 52% 29.99 in 10.0 mi WSW 5.8 mph 16.1 mph N/A   Overcast
3:15 PM 87.8 °F 92.6 °F 69.8 °F 55% 29.98 in 10.0 mi SSW 8.1 mph - N/A   Mostly Cloudy
3:35 PM 87.8 °F 92.6 °F 69.8 °F 55% 29.97 in 10.0 mi SSW 12.7 mph - N/A   Mostly Cloudy
3:55 PM 89.6 °F 94.7 °F 69.8 °F 52% 29.97 in 10.0 mi South 13.8 mph 19.6 mph N/A   Mostly Cloudy
4:15 PM 87.8 °F 92.6 °F 69.8 °F 55% 29.97 in 10.0 mi SSW 12.7 mph - N/A   Overcast
4:35 PM 89.6 °F 94.7 °F 69.8 °F 52% 29.96 in 10.0 mi SSW 12.7 mph - N/A   Scattered Clouds
4:55 PM 89.6 °F 94.7 °F 69.8 °F 52% 29.96 in 10.0 mi SSW 11.5 mph - N/A   Mostly Cloudy
5:15 PM 89.6 °F 94.7 °F 69.8 °F 52% 29.96 in 10.0 mi SW 15.0 mph - N/A   Overcast
5:35 PM 87.8 °F 92.6 °F 69.8 °F 55% 29.96 in 10.0 mi SW 9.2 mph 16.1 mph N/A   Partly Cloudy
5:55 PM 87.8 °F 91.4 °F 68.0 °F 52% 29.95 in 10.0 mi SW 11.5 mph 18.4 mph N/A   Clear
6:15 PM 87.8 °F 91.4 °F 68.0 °F 52% 29.95 in 10.0 mi SW 11.5 mph 17.3 mph N/A   Scattered Clouds
6:35 PM 87.8 °F 91.4 °F 68.0 °F 52% 29.95 in 10.0 mi SW 12.7 mph - N/A   Scattered Clouds
6:55 PM 86.0 °F 89.4 °F 68.0 °F 55% 29.95 in 10.0 mi WSW 10.4 mph - N/A   Scattered Clouds
7:15 PM 84.2 °F 87.3 °F 68.0 °F 58% 29.95 in 10.0 mi SW 6.9 mph 16.1 mph N/A   Clear
7:35 PM 84.2 °F 88.4 °F 69.8 °F 62% 29.96 in 10.0 mi SW 3.5 mph - N/A   Clear
7:55 PM 82.4 °F 85.4 °F 68.0 °F 62% 29.97 in 10.0 mi SSW 5.8 mph - N/A   Clear
8:15 PM 82.4 °F 85.4 °F 68.0 °F 62% 29.98 in 10.0 mi SSW 6.9 mph - N/A   Clear
8:35 PM 80.6 °F 83.2 °F 68.0 °F 65% 29.98 in 10.0 mi South 3.5 mph - N/A   Clear
8:55 PM 80.6 °F 83.2 °F 68.0 °F 65% 29.98 in 10.0 mi SSW 6.9 mph - N/A   Clear
9:15 PM 80.6 °F 83.2 °F 68.0 °F 65% 29.99 in 10.0 mi SSW 5.8 mph - N/A   Partly Cloudy
9:35 PM 80.6 °F 83.9 °F 69.8 °F 70% 29.99 in 10.0 mi SSW 10.4 mph - N/A   Partly Cloudy
9:55 PM 80.6 °F 83.9 °F 69.8 °F 70% 30.00 in 10.0 mi South 8.1 mph - N/A   Clear
10:15 PM 78.8 °F - 69.8 °F 74% 30.01 in 10.0 mi SSW 8.1 mph - N/A   Clear
10:35 PM 78.8 °F - 69.8 °F 74% 30.02 in 10.0 mi SSW 13.8 mph - N/A   Clear
10:55 PM 77.0 °F - 69.8 °F 78% 30.02 in 10.0 mi SSW 12.7 mph - N/A   Clear
11:15 PM 77.0 °F - 69.8 °F 78% 30.03 in 10.0 mi SSW 13.8 mph 20.7 mph N/A   Clear
11:35 PM 75.2 °F - 69.8 °F 83% 30.03 in 10.0 mi SW 11.5 mph 17.3 mph N/A   Clear
11:55 PM 75.2 °F - 68.0 °F 78% 30.03 in 10.0 mi SW 11.5 mph - N/A   Clear